Home   Weather   Woodbridge   Past weeks
Flag for USA

Past Weather in Woodbridge, Virginia, USA — Yesterday and Last 2 Weeks

Now
47 °F

More clouds than sun.


Feels Like: 41 °F
Forecast: 47 / 36 °F
Wind: 14 mph from Northwest

Location: Reagan National Airport

Current Time: Feb 18, 2019 at 11:47:57 am

Latest Report: Feb 18, 2019 at 10:52 am


Visibility: 10 mi

Pressure: 29.98 "Hg

Humidity: 64%

Dew Point: 35 °F

Location of WoodbridgeLocation

Past Weather in Woodbridge — Graph

°F

Woodbridge Temperature Yesterday

Maximum temperature yesterday: 40 °F (at 2:52 pm)
Minimum temperature yesterday: 32 °F (at 5:52 am)
Average temperature yesterday: 36 °F

High & Low Weather Summary for the Past Weeks

 TemperatureHumidityPressure
High73 °F (Feb 5, 3:52 pm)96% (Feb 8, 12:43 am)30.78 "Hg (Feb 8, 12:43 am)
Low27 °F (Feb 10, 5:52 am)21% (Feb 15, 11:52 pm)29.65 "Hg (Feb 15, 2:52 pm)
Average43 °F67%30.09 "Hg
* Reported Feb 3 9:52 am — Feb 18 9:52 am, Woodbridge. Weather by CustomWeather, © 2019

Note: Actual official high and low records may vary slightly from our data, if they occured in-between our weather recording intervals... More about our weather records

Advertising

Woodbridge Weather History for the Previous 24 Hours

Scroll right to see more
 ConditionsComfort  
Time TempWeatherWind HumidityBarometerVisibility
9:52 am
Mon, Feb 18
45 °FMostly cloudy.10 mph71%29.93 "Hg10 mi
8:52 am44 °FPartly sunny.3 mph79%29.91 "Hg10 mi
7:52 am41 °FCloudy.3 mph86%29.86 "Hg10 mi
6:52 am40 °FOvercast.3 mph86%29.84 "Hg10 mi
5:52 am40 °FPassing clouds.No wind86%29.82 "Hg10 mi
4:52 am40 °FLight rain. Overcast.3 mph89%29.80 "Hg10 mi
4:26 am40 °FLight rain. Low clouds.7 mph89%29.81 "Hg9 mi
3:52 am40 °FLight rain. Low clouds.8 mph89%29.78 "Hg10 mi
3:22 am40 °FLight rain. Low clouds.9 mph89%29.77 "Hg9 mi
2:52 am40 °FRain. Low clouds.10 mph86%29.79 "Hg8 mi
2:37 am39 °FLight rain. Low clouds.10 mph89%29.81 "Hg9 mi
2:15 am39 °FRain. Overcast.8 mph89%29.81 "Hg8 mi
1:52 am39 °FRain. Low clouds.14 mph89%29.82 "Hg9 mi
1:04 am39 °FLight rain. Low clouds.8 mph86%29.87 "Hg10 mi
12:52 am38 °FLight rain. Low clouds.9 mph90%29.87 "Hg10 mi
12:27 am38 °FLight rain. Mostly cloudy.7 mph90%29.89 "Hg10 mi
11:52 pm
Sun, Feb 17
37 °FLight rain. Low clouds.16 mph89%29.88 "Hg8 mi
11:33 pm37 °FLight rain. Mostly cloudy.15 mph86%29.88 "Hg8 mi
11:19 pm37 °FLight rain. Mostly cloudy.10 mph86%29.91 "Hg9 mi
11:08 pm37 °FLight rain. Mostly cloudy.8 mph86%29.92 "Hg10 mi
10:31 pm36 °FLight rain. Mostly cloudy.8 mph89%29.95 "Hg9 mi
10:21 pm36 °FLight rain. Mostly cloudy.5 mph89%29.96 "Hg7 mi
9:52 pm36 °FRain. Overcast.6 mph82%29.98 "Hg6 mi
8:52 pm36 °FLight rain. Overcast.5 mph79%29.97 "Hg10 mi
8:07 pm36 °FLight rain. Mostly cloudy.6 mph75%29.95 "Hg10 mi
7:52 pm36 °FLight rain. Mostly cloudy.7 mph75%29.96 "Hg10 mi
6:52 pm37 °FLight rain. Overcast.9 mph67%30.01 "Hg10 mi
5:52 pm38 °FLight rain. Mostly cloudy.10 mph63%30.01 "Hg10 mi
5:29 pm39 °FLight rain. Overcast.6 mph55%30.04 "Hg10 mi
4:52 pm40 °FOvercast.7 mph51%30.03 "Hg10 mi
3:52 pm40 °FOvercast.9 mph51%30.03 "Hg10 mi
2:52 pm40 °FOvercast.No wind45%30.05 "Hg10 mi
1:52 pm39 °FMore clouds than sun.3 mph48%30.07 "Hg10 mi
12:52 pm39 °FMore clouds than sun.5 mph48%30.13 "Hg10 mi
11:52 am38 °FOvercast.6 mph46%30.13 "Hg10 mi
Weather by CustomWeather, © 2019

See weather overview